Taurus 1
1 44530U 19059C   25157.85941721  .00004335  00000-0  80320-3 0  9998
2 44530  98.6063 297.1232 0009792  52.9119 307.2977 14.65821887303540
Duchifat 3
1 44854U 19089C   25157.78370967  .00033684  00000-0  66259-3 0  9994
2 44854  36.9442  12.9727 0005092 295.4221  64.6008 15.46343958302517
TO-108
1 44881U 19093C   25157.86573177  .00000825  00000-0  10140-3 0  9995
2 44881  97.7924 233.5721 0012572 237.0824 122.9183 14.85596536295678
FloripaSat 1
1 44885U 19093G   25157.54292972  .00003649  00000-0  31025-3 0  9997
2 44885  97.8180 245.1374 0009468 207.3898 152.6826 14.98454099296295
RS-44
1 44909U 19096E   25157.42664245  .00000011  00000-0  81691-5 0  9996
2 44909  82.5220 229.3728 0216424 303.1247  54.9248 12.79740770254286
UPMSat 2
1 46276U 20061E   25157.24120858  .00051363  00000-0  45812-3 0  9995
2 46276  97.2444 231.5113 0002034 163.0637 197.0692 15.68291468264947
SALSAT
1 46495U 20068K   25157.65885528  .00004940  00000-0  21487-3 0  9993
2 46495  97.8596 135.5522 0011779 163.7286 196.4330 15.22706295258083
CubeSX-Sirius-HSE
1 47951U 21022V   25157.62701764  .07883385  25648-5  89537-3 0  9993
2 47951  97.4004  72.1904 0010275 223.9924 136.0557 16.36879307233400
CubeSX-HSE
1 47952U 21022W   25157.69972699  .06655353  25454-5  93288-3 0  9992
2 47952  97.3980  72.5414 0010307 219.3637 140.6911 16.34906352233436
GRBAlpha
1 47959U 21022AD  25157.86624487  .01806736  24172-5  12334-2 0  9993
2 47959  97.3977  72.6624 0008684 195.0910 165.0120 16.16572343232275
TUBIN
1 48900U 21059X   25157.83824605  .00035799  00000-0  43778-3 0  9999
2 48900  97.6746 326.8423 0003287 223.7677 136.3319 15.60330556219613
LEDSAT
1 49069U 21073D   25157.48513706  .00052343  00000-0  63578-3 0  9994
2 49069  97.3890 238.8936 0010093  96.8993 263.3413 15.60372476210952
CUTE
1 49263U 21088D   25157.18835014  .00010772  00000-0  21692-3 0  9993
2 49263  97.4513 233.3450 0006834 245.0118 115.0422 15.46746186203904
TeikyoSat 4
1 49396U 21102B   25157.49806038  .00001579  00000-0  10743-3 0  9995
2 49396  97.4106 196.0382 0013798 138.3748 221.8534 15.07632585196082
Z-Sat
1 49399U 21102E   25157.84357059  .00003454  00000-0  19084-3 0  9992
2 49399  97.3803 199.4497 0019823 112.1905 248.1433 15.14390535196569
KOSEN 1
1 49402U 21102H   25157.84056372  .00005273  00000-0  24514-3 0  9996
2 49402  97.3710 202.8409 0017659  89.8467 270.4792 15.20259456196874
HO-113
1 50466U 21131B   25157.84418085  .00000459  00000-0  15705-3 0  9996
2 50466  98.5100 247.2104 0005145 134.6173 225.5436 14.40811726181052
Foresail-1
1 52766U 22057AL  25157.40930865  .00325962  44729-4  77795-3 0  9992
2 52766  97.6040 309.1023 0007986 251.9624 108.0782 15.96550674169393
SNUGLITE 2
1 52899U 22065F   25157.82316112  .00001026  00000-0  20840-3 0  9998
2 52899  98.1684 299.8234 0008833 118.4228 241.7865 14.63207983156082
UmKA 1 (RS40S)
1 57172U 23091G   25157.83343471  .00004614  00000-0  24787-3 0  9996
2 57172  97.5584 213.2296 0013814 350.6972   9.4002 15.15332648107063
CubeBel-2 (EU11S)
1 57175U 23091K   25157.87038239  .00007161  00000-0  34217-3 0  9995
2 57175  97.5584 214.3959 0011680   0.1053   0.0182 15.19277854107146
VERONIKA
1 58261U 23174F   25157.71719434  .00113342  00000-0  94803-3 0  9996
2 58261  97.4121 243.7204 0002030  96.8416 263.3077 15.69650841 88233
ENSO
1 58470U 23185J   25157.87157210  .00044384  00000-0  64612-3 0  9999
2 58470  97.3740 232.9034 0007931 100.5626 259.6522 15.55583228 84613
EIRSAT-1
1 58472U 23185L   25157.83537754  .00078073  00000-0  73172-3 0  9995
2 58472  97.3695 234.7208 0005304 113.9881 246.1936 15.66952643 84736
SONATE-2
1 59112U 24043Q   25157.62776317  .00012850  00000-0  37166-3 0  9992
2 59112  97.5126 288.7466 0012325 123.4915 236.7508 15.35680322 69886
MO-122
1 60209U 24125G   25157.83831806  .00013575  00000-0  38658-3 0  9992
2 60209  97.2800   9.4881 0019984 143.7672 216.4930 15.36019366 51535
GRBBeta
1 60237U 24128C   25157.54174127  .00003937  00000-0  30147-3 0  9996
2 60237  61.9915  90.1507 0051772  56.8446 303.7596 15.02605980 49741
Curium One
1 60242U 24128H   25157.51683468  .00006361  00000-0  44678-3 0  9990
2 60242  61.9814  88.5752 0051734  52.8503 307.7298 15.05061833 49778
ROBUSTA-3A
1 60243U 24128J   25157.78437804  .00006006  00000-0  42859-3 0  9996
2 60243  61.9884  88.4571 0050496  50.5774 309.9771 15.04596823 49808
CatSat
1 60246U 24125J   25157.16073868  .00007639  00000-0  25547-3 0  9992
2 60246  97.2600   8.0712 0044284 106.1268 254.4855 15.30299721 49463
HYPERVIEW-1G (RS66S)
1 61772U 24199AP  25157.87372173  .00014826  00000-0  43207-3 0  9996
2 61772  97.3546  26.7379 0013294 194.6302 165.4559 15.35389700 76545
AO-123
1 61781U 24199AY  25157.89562652  .00005068  00000-0  18582-3 0  9997
2 61781  97.3558  25.6756 0015128 201.3317 158.7294 15.28331528 76475
ZIMSAT 2
1 61783U 24199BA  25157.87002432  .00027002  00000-0  66460-3 0  9992
2 61783  97.3523  27.3265 0013408 190.5427 169.5540 15.40486111 79732
HADES-R (SO-124)
1 62690U 25009CK  25157.46872848  .00025708  00000-0  91442-3 0  9991
2 62690  97.4095 238.2861 0004442 116.3003 243.8694 15.28954261 21672
HYDRA-T
1 62692U 25009CM  25157.45470892  .00025839  00000-0  91214-3 0  9997
2 62692  97.4094 238.3047 0004063 113.0391 247.1278 15.29203657 21675
JINJUSat 1B
1 63210U 25052A   25157.43684699  .00007678  00000-0  35343-3 0  9994
2 63210  97.4431  51.5996 0003820   2.8090 357.3166 15.20587684 12773
NUSHSAT 1
1 63211U 25052B   25157.49803220  .00008750  00000-0  39972-3 0  9998
2 63211  97.4420  51.6606 0004052   8.3759 351.7543 15.20807436 12780
TEVEL2-4
1 63213U 25052D   25157.44522608  .00008749  00000-0  40312-3 0  9991
2 63213  97.4339  51.4901 0003878  28.9625 331.1825 15.20512068 12770
TEVEL2-5
1 63214U 25052E   25157.24834426  .00009014  00000-0  41546-3 0  9990
2 63214  97.4337  51.2951 0003912  29.8035 330.3422 15.20491017 12747
TEVEL2-6
1 63215U 25052F   25157.44782723  .00009101  00000-0  41987-3 0  9991
2 63215  97.4339  51.4881 0003975  29.1620 330.9836 15.20454390 12777
TEVEL2-1
1 63217U 25052H   25157.45845295  .00008980  00000-0  41694-3 0  9997
2 63217  97.4311  51.4475 0004525  38.0758 322.0796 15.20237567 12773
TEVEL2-2
1 63218U 25052J   25157.26129163  .00008861  00000-0  41147-3 0  9997
2 63218  97.4312  51.2529 0004565  39.4390 320.7177 15.20234153 12747
TEVEL2-3
1 63219U 25052K   25157.26140003  .00008937  00000-0  41505-3 0  9996
2 63219  97.4311  51.2529 0004597  39.0278 321.1288 15.20229283 12749
TEVEL2-8
1 63237U 25052AD  25157.45599570  .00008771  00000-0  42141-3 0  9997
2 63237  97.4376  51.3673 0009195  37.3940 322.7933 15.19032030 12763
TEVEL2-9
1 63238U 25052AE  25157.26058930  .00008491  00000-0  40876-3 0  9999
2 63238  97.4377  51.1718 0009332  37.6683 322.5204 15.18970805 12739
TEVEL2-7
1 63239U 25052AF  25157.26246654  .00008428  00000-0  40616-3 0  9994
2 63239  97.4377  51.1685 0009329  38.2342 321.9552 15.18935896 12738
HYDRA-W
1 63490U 25052BL  25157.19519909  .00018425  00000-0  78197-3 0  9994
2 63490  97.4328  51.3566 0013066  33.8503 326.3565 15.23066712 12748
HADES-ICM
1 63492U 25052BN  25156.68349005  .00020360  00000-0  87450-3 0  9990
2 63492  97.4329  50.8230 0013421  38.9639 321.2562 15.22635030 12660
